Regional Weather Roundup
Issued by NWS Grand Forks, ND

Home | Current Version | Previous Version | Graphics & Text | Print | Product List | Glossary On
Versions: 1 2 3 4 5 6 7 8 9 10 11 12 13 14 15 16 17 18 19 20 21 22 23 24 25 26 27 28 29 30 31 32 33 34 35 36 37 38 39 40 41 42 43 44 45 46 47 48 49 50
000
ASUS43 KFGF 101131
RWRFGF
PRAIRIE TO PINES  WEATHER ROUNDUP
NATIONAL WEATHER SERVICE EASTERN NORTH DAKOTA/GRAND FORKS ND
500 AM CST SAT DEC 10 2016

 **SATELLITE DATA USED TO AUGMENT SKY COVER AT AUTOMATED STATIONS**
 *****  WEATHER ACROSS EASTERN NORTH DAKOTA  *****

CITY           SKY/WX    TMP DP  RH WIND       PRES   REMARKS
GRAND FORKS    CLOUDY    -3  -9  75 N6        30.53F WCI -15
GRAND FRKS AFB CLOUDY    -8 -13  77 N5        30.51F WCI -19
DEVILS LAKE    CLOUDY   -16 -20  82 CALM      30.45F
FARGO          CLOUDY    -6 -12  75 W6        30.53S WCI -19
WAHPETON ARPT  CLOUDY    -8 -15  71 W3        30.53S
$$

 ***** WEATHER ACROSS CENTRAL AND WESTERN NORTH DAKOTA  *****

CITY           SKY/WX    TMP DP  RH WIND       PRES   REMARKS
BISMARCK       CLOUDY   -13 -17  82 E5        30.42F WCI -25
MINOT          CLOUDY   -18 -24  74 CALM      30.39F
JAMESTOWN      CLOUDY   -14 -19  79 NW5       30.45F WCI -26
MINOT AFB      CLEAR    -23 -29  73 W2        30.40F
GARRISON         N/A    -10 -14  82 NE5       30.35F WCI -22
WILLISTON      CLOUDY   -13 -18  78 NE6       30.31F WCI -27
DICKINSON      CLOUDY   -10 -15  78 E9        30.19F WCI -27
HETTINGER      CLOUDY    -6 -10  83 E10       30.19F FOG     WCI -24
$$

 *****  OTHER AIRPORT OBSERVATIONS IN OUR AREA  *****

CITY           SKY/WX    TMP DP  RH WIND       PRES   REMARKS
WALHALLA         N/A    -13 -13 100 W5        30.51F WCI -25
GRAFTON AIRPOR FAIR      -9 -15  77 W6        30.55F WCI -23
VALLEY CITY AR FAIR     -17 -20  83 NW3       30.48F
CANDO          FAIR     -18 -22  83 SW3       30.46F
CAVALIER APRT    N/A    -13 -18  77 W5        30.52F WCI -25
GWINNER        FAIR      -6 -11  77 W3        30.49S
SHEYENNE NWR     N/A    -15 -23  66 W3        29.95S
ROLLA          FAIR     -22 -27  76 CALM      30.37F
 ***** THE ABOVE OBSERVATIONS ARE NON NWS ARE NOT QUALITY
       CONTROLLED AND MAY MIS-REPORT RAIN FOR SNOW...
$$

  *****  WEATHER ACROSS NORTHERN MINNESOTA  *****

CITY           SKY/WX    TMP DP  RH WIND       PRES   REMARKS
FLAG ISLAND    CLOUDY    -6  -9  84 W9        30.44F WCI -22
WARROAD        CLOUDY   -13 -18  77 W5        30.46F WCI -25
ROSEAU         CLOUDY    -9 -15  77 W8        30.47F WCI -26
HALLOCK        CLOUDY   -11 -17  77 CALM      30.52F
THF RVR FALLS  CLOUDY    -9 -13  84 NW6       30.49F WCI -23
BAUDETTE       CLEAR    -11 -16  78 W5        30.43F WCI -23
WASKISH        CLOUDY    -2  -6  84 W7        30.44F WCI -16
CROOKSTON      CLOUDY    -2  -6  84 N9        30.52F WCI -18
STEPHEN NDAWN    N/A     -8 -11  84 NW3         N/A
GREENBUSH NDAW   N/A     -6  -8  92 W5          N/A  WCI -17
$$
  *****  WEATHER ACROSS CENTRAL AND WEST MINNESOTA  *****

CITY           SKY/WX    TMP DP  RH WIND       PRES   REMARKS
FOSSTON        PTCLDY   -17 -20  83 CALM      30.46F
BEMIDJI        CLOUDY   -10 -14  83 W3        30.44S
PARK RAPIDS    CLOUDY    -9 -16  71 CALM      30.42F
ELBOW LAKE     FAIR     -10 -14  84 NW6       30.49S WCI -24
WADENA         CLOUDY    -8 -11  84 CALM      30.44S
DETROIT LAKES  CLOUDY    -9 -15  77 CALM      30.46S
MOORHEAD       CLOUDY    -8 -11  84 CALM      30.52S
FERGUS FALLS   CLOUDY   -15 -18  84 CALM      30.55S
MORRIS MN      CLOUDY    -8 -11  84 NW7       30.49S WCI -22
STAPLES        NOT AVBL
$$
  *****  WEATHER ELSEWHERE ACROSS MINNESOTA  *****

CITY           SKY/WX    TMP DP  RH WIND       PRES   REMARKS
DULUTH         LGT SNOW   3  -2  79 NW6       30.39F WCI  -8
INTRNTL FALLS  CLEAR     -7 -12  79 W6        30.42F WCI -20
ELY            CLEAR     -8  -9  92 W3        30.39S
CLOQUET        CLOUDY     3  -4  72 NW5       30.41F WCI  -6
WHEATON        CLOUDY    -6 -11  77 W3        30.54F
BRAINERD       CLOUDY     2  -2  83 W5        30.44F WCI  -8
HIBBING        LGT SNOW  -2  -6  84 NW3       30.42R FOG
ALEXANDRIA     CLOUDY    -5  -9  83 W7        30.45F WCI -19
SAINT CLOUD    CLEAR     -1  -4  87 NW5       30.48F WCI -11
MINNEAPOLIS    CLEAR      4  -1  80 NW7       30.50F WCI  -8
$$

  *****  WEATHER ACROSS SOUTH DAKOTA  *****

CITY           SKY/WX    TMP DP  RH WIND       PRES   REMARKS
SIOUX FALLS    FLURRIES  10   6  84 NE7       30.42F WCI  -1
BROOKINGS      CLOUDY     3  -2  79 E5        30.41F WCI  -6
WATERTOWN      CLOUDY    -2  -6  83 NE3       30.41F
HURON          CLOUDY     0  -4  83 NE7       30.44F WCI -13
SISSETON         N/A     -8 -13  78 NW6       30.49F WCI -21
ABERDEEN       CLOUDY    -6 -15  65 N8        30.48F WCI -21
MITCHELL       FLURRIES   7   3  84 NE9       30.43F WCI  -7
PIERRE         LGT SNOW  -1  -6  79 E13       30.33F WCI -19
MOBRIDGE       CLOUDY    -6 -12  75 E10       30.35S WCI -24
RAPID CITY     CLOUDY     4  -1  80 SE16      30.09F WCI -15
$$

  *****  SOME WEATHER IN NEARBY STATES *****

CITY           SKY/WX    TMP DP  RH WIND       PRES   REMARKS
GLASGOW MT     CLOUDY    -5 -10  79 E14G22    30.13F WCI -25
GREAT FALLS MT CLOUDY     1  -3  83 CALM      29.85F
CHEYENNE WY    CLOUDY    34  21  59 S10       29.93F
SCOTTSBLUFF NE CLOUDY    14   8  77 E12       29.99F WCI   0
OMAHA NE       CLOUDY    23  14  68 SE5       30.46F WCI  17
DES MOINES IA  CLOUDY    23  13  65 E5        30.48F WCI  17
DAVENPORT IA   CLOUDY    19  13  77 SW5       30.52F WCI  12
CHICAGO IL     CLOUDY    19  12  74 W9        30.50R WCI   8
EAU CLAIRE WI  CLOUDY    10   3  73 W10       30.46S WCI  -4
LA CROSSE WI   PTCLDY    11   4  73 W7        30.51F WCI   0
$$

  *****  SOME NATIONAL WEATHER *****

CITY           SKY/WX    TMP DP  RH WIND       PRES   REMARKS
LA GUARDIA NY  CLEAR     31  16  54 NW13      30.35R WCI  21
RALEIGH NC     CLEAR     20  15  81 CALM      30.52R
ATLANTA GA     CLEAR     27  19  72 NW8       30.48R WCI  19
NEW ORLEANS LA CLEAR     41  27  57 E9        30.52S
OKLAHOMA CITY  CLOUDY    34  20  56 SE12      30.37F
ALBUQUERQUE NM CLOUDY    29  24  82 CALM      30.28F
SALT LAKE CITY CLOUDY    37  31  78 NW12      29.98S
LOS ANGELES CA CLOUDY    59  55  87 CALM      30.17R FOG
BOISE ID       CLOUDY    32  31  96 SE3       29.89F FOG
SEATTLE WA     MOCLDY    36  35  96 S10       29.82S
$$

*** WEATHER ACROSS MANITOBA...SASKATCHEWAN AND ONTARIO ***
                ***ONTARIO***

CITY           SKY/WX    TMP DP  RH WIND       PRES   REMARKS
GERALDTON      FLURRIES  -6  -9  84 N3        30.29S
THUNDER BAY    MOCLDY     9   1  72 W7        30.40R WCI  -3
SIOUX LOOKOUT  FLURRIES  -4  -8  84 N5        30.35F WCI -15
TORONTO        FLURRIES  21  16  79 NE5       30.32R WCI  15
BIG TROUT LK   FLURRIES  -9 -13  84 W8        30.36S WCI -26
PICKLE LAKE    FLURRIES  -8 -11  84 NW6       30.32  WCI -21
DRYDEN         CLEAR     -9 -13  84 W8        30.37R WCI -26
KENORA         SNOW      -8 -11  84 W6        30.39  VSB 1/4 WCI -21
$$
                *** MANITOBA***

CITY           SKY/WX    TMP DP  RH WIND       PRES   REMARKS
BRANDON        CLEAR    -22 -27  76 W7        30.43F WCI -39
DAUPHIN        CLEAR    -17 -22  76 SW8       30.46F WCI -34
ISLAND LAKE    NOT AVBL
PILOT MOUND      N/A    -20 -26  76 SW2         N/A
THE PAS        CLOUDY    -8 -13  77 SW6       30.42F WCI -21
THOMPSON       FLURRIES  -4  -9  77 S2        30.39F
WINNIPEG       MOCLDY   -13 -18  77 W7        30.51F WCI -29
LYNN LAKE      CLOUDY    -6  -9  84 W5        30.28F WCI -17
CHURCHILL      PTCLDY   -13 -18  77 W12       30.31F WCI -33
GILLAM         CLEAR    -11 -17  77 W7        30.39F WCI -26
$$
                ***SASKATCHEWAN***

CITY           SKY/WX    TMP DP  RH WIND       PRES   REMARKS
ESTEVAN        PTCLDY   -20 -26  76 E5        30.33F FOG     WCI -33
KINDERSLEY     PTCLDY    -6 -11  77 E10       30.13F WCI -23
LLOYDMINSTER   CLEAR    -17 -22  76 SE5       30.19F WCI -29
PRINCE ALBERT  CRYSTALS -24 -29  76 CALM      30.35F
REGINA         CLEAR    -17 -22  76 SE8       30.29F WCI -34
YORKTON        CLEAR    -17 -20  83 S3        30.36F
N. BATTLEFORD  CLEAR    -17 -22  76 SE7       30.28F WCI -33
LA RONGE       CLEAR    -24 -29  76 CALM      30.35F
SASKATOON      CRYSTALS -11 -17  77 E6        30.30F WCI -25
SWIFT CURRENT  CLOUDY    -4  -8  84 SE15      30.08F WCI -25
$$
NOTE: THESE ARE AUTOMATED STATIONS WITH LIMITED QUALITY CONTROL
      "FAIR" INDICATES FEW OR NO CLOUDS BELOW 12,000 FEET WITH NO
      SIGNIFICANT WEATHER AND/OR OBSTRUCTIONS TO VISIBILITY.
      SKY/WX - SKY CONDITION AND SIGNIFICANT WEATHER.
      TMP - AIR TEMPERATURE.    DP   - DEWPOINT TEMPERATURE.
      RH  - RELATIVE HUMIDITY.  PRES - PRESSURE.
      HX  - HEAT INDEX.         WCI  - WIND CHILL INDEX.
$




USA.gov is the U.S. government's official web portal to all federal, state and local government web resources and services.